Showing default

YARILO-1, 46490

Orbit data source: Space-Track

YARILO-1, 46490 is a payload satellite owned by MGTU Bauman (CIS) in SSO that was launched on Mon, 28 Sep 2020 UTC via a SOYUZ-2-1B launch vehicle from the Plesetsk Missile And Space Complex (PKMTR). Payloads include a variety of satellites, spacecraft, and rockets equipped with specific instruments for various scientific and technological missions. These include communications satellites like Starlink; space stations such as the ISS; scientific satellites like the Hubble; Earth observation satellites from companies like Planet Labs, Umbra, and HawkEye 360; GPS; miniature CubeSats for education and research; and military/defense satellites.

Loading next visibility...
YARILO-1 details
Identifier
46490, 2020-068E
Orbit
SSO
Last TLE update9 hours ago
Origin
Flag of CISMGTU Bauman (CIS)
ManufacturerMGTU Bauman
MissionOperational Amateur Science
Bus & MotorCUBESAT 1.5U, Unknown motor
Mass2 kg wet, 2 kg dry
Launch date (UTC)
2020-09-28 (4 years ago)
Launch vehicle
SOYUZ-2-1B
Launch site
Plesetsk Missile And Space Complex (PKMTR)
Object type
Payload
Rocket body
Debris
Shape & HBRBox + 2 Pan, Unknown HBR
Radar Cross Section0.025 m², Small (<0.1 m²)

Expand to show TLE details & history

TLE from 9 hours ago
0 YARILO-1
1 46490U 20068E   24361.19454771  .00138655  00000-0  16828-2 0  9998
2 46490  97.8242 341.6953 0005753  16.9755 343.1692 15.60122198234418
Epoch: 2024-12-26T04:40Z
Definitive object data (Epoch: 2024-12-26T04:40:08.922Z)
Latitude-0°
Longitude176.48069°
Altitude386.71 km
Speed7.68 km/s
True Right ascension22h 46m 46s
True Declination0° 00' 00"
Sunlit
Object was in daylight at TLE epoch
Visualization TLE readout
Latitude-74.95178°
Longitude-33.66403°
Altitude416.127 km
Speed7.659 km/s
Apparent Right ascension02h 13m 17s
Apparent Declination-67° 50' 13"
Sunlit
Object is in daylight
Visualization observer readout
Local Sidereal Time12:49:31
Azimuth195.56° SSW
Elevation-59.823°
Doppler factor1
Orbital elements
Apogee altitude388.125 km
Perigee altitude380.345 km
Semi-major axis6,762.372 km
Eccentricity0.0005753
Inclination97.8242°
RAAN341.6953°
Arg. of periapsis16.9755°
True anomaly343.1501°
Mean anomaly343.1692°
Eccentric anomaly343.15965°
Mean motion3.90296 °/min
BSTAR0.0016828
Orbital period92.24 mins
Loading maneuver chart data...
Loading historical data...
Loading historical data...
Loading historical data...
Loading historical data...
Loading historical data...
Loading historical data...
Loading historical data...

YARILO-1 Visibility forecast

Observer location: undefined°, undefined

Span
Click to sort rows by Start time (UTC) header in descending order
Start Az.
Max El. time (UTC)
Max El. Az.
Max El.
End time (UTC)
End Az.
5 mins2024-12-26 23:15:50.532Z187.102° SSW2024-12-26 23:18:50.532Z279.259° WNW33.286°2024-12-26 23:20:50.532Z329.8° NNW
|